Dewpoint
70 70 73 72 71 72 72 75 73 75 73 72 73 74 73 72 73 71 71 71 70 70 69 69 71 70 70 69 69 68 69 68 69 69 70 70 71 74 74 74 74 74 73 73 73 74 74 74 74 74 74 74 73 73 73 73 72 72 73 72 71 71 71 72 72 72 72 72 72 72 72 72 72 71 71 72 71 71 71 72 71 71 71 71 71
71 75 71 72 73 73 75 74 75 74 73 73 73 73 73 73 71 72 71 71 71 71 71 70 68 67 68 67 66 66 67 64 67 66 67 67 69 75 74 73 74 73 73 73 74 73 74 74 74 74 74 74 75 74 74 74 73 72 72 72 72 71 71 72 72 72 72 72 72 72 72 72 72 72 72 72 72 72 71 71 72 72 72 72 72
72 76 73 72 75 74 75 73 73 73 74 72 74 73 72 72 74 73 72 73 72 71 71 70 66 64 63 65 64 64 64 64 62 63 61 65 66 69 74 74 73 74 74 74 74 74 74 74 74 74 74 74 74 74 74 74 73 72 72 72 72 71 72 72 72 72 72 72 72 72 72 72 72 72 72 72 72 72 72 72 71 72 72 72 72
75 74 73 73 74 75 74 73 74 74 73 73 74 73 72 73 73 75 75 74 72 70 68 65 65 63 65 63 63 63 61 62 60 62 62 64 63 66 71 74 74 73 74 74 74 74 74 74 74 74 74 73 74 74 74 74 74 73 72 72 72 71 71 71 71 72 72 72 73 73 73 73 73 73 73 72 73 73 73 73 72 72 72 72 72
76 75 74 72 73 74 73 74 74 74 76 74 74 74 74 73 74 73 74 72 69 67 66 64 60 60 62 61 61 61 63 64 64 62 61 63 63 64 65 67 73 74 73 74 74 74 74 74 74 74 73 73 73 74 74 74 74 73 73 72 72 72 72 71 72 72 72 72 73 73 73 73 73 73 73 73 73 73 73 73 73 73 73 73 73
77 77 74 73 73 74 74 73 75 75 74 75 74 74 73 74 73 70 68 68 66 66 60 62 59 61 61 62 64 65 65 64 63 63 63 64 65 66 64 64 66 72 73 74 74 74 74 74 74 74 74 73 73 73 73 73 73 73 73 73 72 72 72 72 72 72 72 72 73 72 73 73 73 73 73 73 73 73 73 73 73 73 73 73 73
78 78 75 74 73 73 76 74 74 75 74 75 74 73 72 72 71 68 67 65 62 61 62 63 63 64 66 66 66 66 66 65 66 65 66 67 67 65 67 67 65 66 71 72 74 74 75 74 74 74 74 73 73 73 73 73 73 73 73 72 73 72 71 71 72 72 73 72 72 72 72 73 73 73 73 73 73 74 74 73 73 74 74 74 74
78 77 76 74 73 73 75 75 76 76 74 75 75 73 74 72 69 67 64 62 63 63 64 64 65 64 66 67 66 67 66 66 66 65 63 66 67 66 67 68 70 67 67 66 71 73 75 75 75 74 74 73 73 73 72 73 72 72 72 72 73 73 72 71 71 72 73 73 73 73 73 73 73 73 73 73 73 73 74 74 74 74 74 74 74
79 77 77 76 74 74 73 74 76 74 75 75 74 73 71 67 68 67 65 67 65 62 64 65 64 65 66 65 66 67 67 66 66 66 66 67 66 64 66 68 70 67 68 62 66 71 75 75 75 74 73 73 73 73 73 72 72 72 72 72 73 73 72 72 72 73 74 74 73 73 73 73 73 73 73 72 73 73 73 74 74 74 74 74 74
78 79 77 76 75 76 73 76 75 75 75 74 73 70 68 66 65 67 67 68 66 65 65 64 64 64 64 63 66 64 64 65 66 66 66 66 67 67 67 68 67 66 63 65 65 67 72 74 75 74 74 73 73 73 73 72 72 72 72 72 72 72 73 72 73 73 73 74 73 73 73 73 73 73 73 73 74 73 73 73 73 74 74 74 74
79 79 77 75 75 75 74 74 74 75 75 73 69 68 67 68 67 68 69 68 66 67 66 65 65 64 61 63 64 66 66 64 66 65 63 62 64 66 64 67 68 68 69 66 64 65 67 73 74 72 74 74 74 74 73 73 72 72 72 71 72 72 73 73 73 73 73 72 73 72 73 73 73 73 73 74 74 74 74 74 74 74 74 74 74
78 79 77 76 75 75 74 76 75 73 70 68 66 65 67 68 68 68 68 68 67 66 66 64 62 61 62 62 64 65 65 65 65 63 63 62 63 65 63 64 67 68 68 70 68 65 67 68 70 72 71 72 74 73 73 73 73 72 72 72 72 73 73 73 73 73 73 73 73 73 73 73 73 73 73 74 74 74 74 74 74 74 74 74 74
79 78 77 77 76 75 74 73 71 69 69 68 67 68 69 69 69 69 68 67 65 64 64 61 63 63 63 60 64 65 65 63 63 61 59 58 60 61 61 63 65 65 68 67 68 68 68 70 68 70 72 74 73 72 72 71 72 73 73 72 73 73 73 73 73 73 73 73 73 73 73 73 73 73 74 74 74 74 74 74 74 74 74 74 74
77 78 77 77 76 74 72 70 68 68 69 68 68 67 67 67 68 68 68 64 63 61 62 62 63 58 58 57 59 63 63 62 60 57 56 57 58 61 62 58 60 62 63 65 66 65 64 67 70 70 71 72 73 72 72 72 72 73 73 73 73 73 73 73 73 73 73 73 73 73 73 73 73 73 73 74 74 74 74 73 73 73 74 74 74
77 77 77 77 75 71 70 70 69 68 69 68 67 65 63 62 66 66 65 63 63 64 64 63 61 59 61 61 59 55 64 63 61 58 55 54 56 57 58 58 59 63 65 64 64 65 63 65 68 69 70 70 72 73 72 71 72 73 72 72 71 72 72 72 72 73 73 73 73 73 73 73 73 73 73 73 74 74 73 73 73 73 74 74 74
77 76 74 74 72 71 70 70 70 70 69 68 66 63 66 67 67 65 66 58 60 61 65 65 63 62 60 55 54 55 61 61 63 60 55 53 52 55 56 57 60 63 63 61 62 64 64 65 66 67 68 69 68 71 72 72 72 71 71 71 71 71 71 71 72 72 72 72 72 72 73 73 73 73 73 73 73 73 73 73 73 73 73 73 74
75 75 72 72 71 71 70 70 70 70 69 68 65 61 66 66 66 66 64 60 60 57 62 63 64 66 63 61 60 58 58 55 50 62 58 57 54 54 58 57 60 61 59 59 63 61 62 62 64 65 65 66 66 67 68 70 70 71 70 68 67 67 67 68 69 69 70 70 71 71 72 72 73 73 72 73 73 73 73 73 73 73 73 73 74
73 72 72 71 72 71 71 70 69 70 69 65 64 65 66 64 65 64 63 64 63 58 59 65 64 66 65 63 61 60 59 60 59 59 62 59 59 61 58 54 58 57 60 60 58 59 58 57 62 61 63 63 62 62 63 66 69 68 69 67 65 64 65 65 66 67 68 68 68 68 69 70 71 72 73 73 73 73 73 73 73 73 73 73 74
71 72 71 71 72 71 71 70 69 69 68 67 65 64 63 65 65 63 64 65 63 63 57 58 63 65 64 62 62 61 60 61 60 58 60 61 57 56 57 59 56 55 54 55 52 55 56 59 59 60 60 61 61 64 64 62 61 63 64 64 63 63 63 64 65 66 66 66 66 66 67 67 68 68 69 70 72 73 73 73 73 72 72 73 73
71 71 71 71 71 71 71 71 69 67 67 66 64 63 64 65 65 65 65 65 65 64 64 60 60 60 63 63 63 64 63 61 62 61 58 57 60 55 55 52 50 51 54 52 48 53 52 55 54 57 60 59 57 59 61 63 66 64 63 63 62 61 62 63 63 65 64 64 65 65 65 66 66 67 67 68 68 70 72 72 72 72 73 73 73
71 70 71 71 71 71 71 71 68 67 67 64 63 64 65 66 66 66 66 67 67 66 65 65 63 59 64 64 63 63 61 60 61 62 60 58 56 57 55 52 51 51 51 52 55 56 56 58 57 56 57 60 60 57 58 61 63 63 60 61 60 60 60 61 62 63 62 62 63 63 64 65 65 66 66 67 67 67 68 69 71 72 72 72 73
72 72 72 71 71 71 71 66 67 64 63 63 64 66 66 66 67 68 68 67 67 66 66 65 64 64 64 64 63 63 62 62 60 60 60 58 56 52 51 52 57 58 55 51 56 55 57 57 56 57 57 57 57 58 59 61 61 60 60 62 62 62 61 61 61 61 62 62 62 62 62 63 64 64 65 65 66 66 67 68 68 69 70 72 72
69 71 71 71 71 71 66 65 65 64 64 65 66 64 64 65 66 67 67 65 66 66 65 65 65 65 64 64 63 61 59 58 59 56 57 56 55 51 51 50 52 53 57 57 61 60 58 57 58 56 59 57 56 58 59 58 60 58 63 63 63 63 63 63 62 62 62 62 62 62 62 62 63 63 63 63 64 65 66 66 67 67 68 68 70
71 68 70 69 71 70 67 65 66 65 65 66 65 63 62 64 66 67 67 66 66 65 65 64 64 64 62 58 60 60 60 58 57 58 59 58 59 57 56 56 56 55 56 61 60 60 60 57 57 57 60 58 59 59 59 59 60 64 62 65 66 65 65 64 64 63 63 63 63 63 63 63 63 63 63 63 63 63 64 64 65 66 66 67 67
71 69 69 70 70 69 68 66 67 66 68 66 65 66 65 64 65 65 65 66 65 65 64 64 62 62 60 56 56 58 58 59 59 58 58 58 59 58 56 51 55 55 57 58 59 60 60 58 58 58 59 59 58 59 61 60 57 66 66 63 68 68 67 66 65 64 63 63 64 63 63 63 63 63 63 63 63 63 63 63 64 64 64 64 65
69 69 68 68 68 68 67 67 67 67 68 68 67 67 67 65 66 65 64 65 65 65 64 62 63 63 63 59 58 57 56 56 57 60 56 56 56 56 58 59 58 55 57 58 59 57 56 59 56 62 60 60 60 60 61 60 58 68 67 61 62 66 66 66 67 66 65 64 64 64 63 63 64 64 64 63 63 63 63 63 64 64 63 63 63
69 69 70 69 67 67 67 67 67 68 68 68 67 67 68 67 67 66 65 64 65 64 63 63 62 62 61 62 61 59 58 58 56 59 59 58 58 59 60 58 57 54 56 59 59 57 53 57 57 57 62 65 63 63 62 61 62 68 65 63 61 63 66 66 66 67 67 66 65 64 64 64 64 64 64 64 63 63 63 64 64 63 63 63 63
71 71 69 68 68 67 67 67 68 67 68 68 68 67 67 66 67 66 65 64 64 64 64 63 62 62 62 63 64 60 61 60 61 60 60 61 61 62 61 61 58 55 56 56 55 56 55 57 59 61 60 60 61 62 63 60 59 65 65 61 62 64 66 66 66 65 65 65 66 65 65 64 64 64 64 64 64 63 63 63 63 64 64 63 63
71 70 69 69 68 68 68 66 67 67 67 68 67 67 67 66 66 67 65 64 68 67 64 63 64 60 62 62 63 63 63 64 63 62 63 64 64 64 63 61 61 59 56 56 58 54 56 53 54 61 61 61 63 61 62 62 63 62 62 62 63 63 63 65 66 65 65 65 65 65 65 65 64 64 64 64 64 63 63 63 63 63 64 63 63
70 70 70 69 69 69 68 67 66 67 67 67 68 68 68 68 67 68 66 67 66 67 68 66 65 65 63 62 62 61 63 63 61 62 63 65 64 64 63 63 63 61 60 58 58 58 58 57 54 57 64 62 59 61 62 63 65 63 63 63 63 63 63 64 65 66 65 65 64 63 64 64 64 64 64 64 64 63 63 63 63 64 63 64 64
71 71 70 68 68 68 68 66 67 67 67 67 68 67 68 69 68 67 67 68 68 66 68 68 65 64 64 63 63 62 63 62 63 62 63 63 63 63 64 64 64 63 62 60 58 60 58 57 57 56 57 60 57 60 60 61 63 62 62 62 63 64 65 65 64 64 64 64 63 63 62 62 62 63 63 63 63 63 63 63 63 63 63 63 63
71 70 69 68 68 67 65 65 65 66 67 67 67 67 68 68 67 66 67 68 67 67 66 65 63 63 63 63 64 64 63 63 64 63 63 64 64 63 63 63 64 64 64 62 61 60 62 58 58 59 59 60 61 60 61 61 62 68 63 63 64 66 64 64 64 64 63 63 63 62 62 61 62 62 63 63 63 63 63 63 63 63 63 63 64
71 69 69 69 68 67 65 66 66 67 68 67 67 68 68 68 68 68 68 68 67 67 67 66 63 63 64 63 64 63 64 63 63 63 62 63 63 62 62 63 63 64 64 65 63 61 62 62 60 59 59 60 59 61 61 61 62 62 63 63 63 63 63 63 63 63 64 63 62 62 62 62 62 62 62 63 63 63 63 63 63 62 63 62 62
71 69 69 68 68 67 66 66 67 67 67 67 67 68 68 68 68 67 67 68 68 68 67 65 64 64 64 65 64 64 64 64 63 63 63 62 61 60 61 61 60 61 64 62 61 61 61 62 60 62 60 59 59 61 60 59 60 62 61 62 62 62 62 62 61 61 63 63 62 61 61 61 62 62 62 62 62 62 62 62 62 61 61 61 61
71 70 69 68 69 68 67 67 67 68 68 68 67 67 68 68 67 66 66 67 67 65 64 64 64 65 64 65 63 63 63 63 63 63 62 62 62 62 61 61 61 60 62 62 61 60 61 60 62 61 60 60 59 60 61 60 62 62 62 62 61 62 62 61 61 60 62 62 62 61 61 61 61 61 61 61 61 61 60 60 60 60 59 59 59
70 71 70 68 68 69 66 67 68 68 66 67 67 67 68 68 67 67 66 67 65 64 63 64 63 64 63 64 62 62 62 62 63 63 63 62 62 62 62 63 63 63 63 64 64 63 62 61 62 61 61 60 60 61 61 61 60 60 60 62 62 62 63 62 62 61 61 61 61 61 61 60 60 60 60 60 59 59 58 58 58 58 58 58 58
71 70 70 68 69 68 65 68 68 67 66 67 68 66 67 68 67 67 66 67 66 64 64 64 64 64 64 63 62 62 62 62 62 61 61 62 62 61 61 62 62 62 62 62 63 63 62 62 61 62 62 61 61 61 62 62 62 62 63 62 61 62 62 60 59 59 60 60 60 60 60 60 60 60 59 59 59 59 58 58 58 57 57 57 57
70 69 69 68 68 67 67 69 68 67 66 68 68 67 66 66 67 67 66 65 64 64 64 64 64 64 63 63 62 62 61 61 60 61 62 61 61 60 61 62 62 62 62 61 62 63 63 63 64 62 64 63 62 63 64 64 61 63 63 62 61 61 62 59 57 57 58 58 58 59 61 61 60 60 59 60 59 59 59 58 57 57 56 56 55
69 68 68 69 68 68 68 68 67 67 68 69 68 68 66 66 67 67 65 65 64 63 63 62 62 62 62 62 63 62 62 61 60 60 61 61 61 61 62 62 61 61 61 62 63 64 64 64 63 63 63 63 64 62 62 62 65 64 61 59 59 60 61 60 59 59 58 59 60 60 59 58 59 58 57 58 59 59 59 58 57 57 56 55 54
69 69 68 68 67 68 69 67 67 69 69 68 68 68 67 66 66 66 66 65 63 64 63 63 62 61 60 60 60 61 62 62 62 62 62 62 62 62 63 63 62 62 61 62 62 61 62 60 59 59 60 61 60 61 62 62 62 62 62 58 57 57 58 61 61 60 59 60 59 58 59 60 60 59 58 58 58 58 58 59 59 59 58 56 55
69 68 68 67 68 68 67 67 66 68 68 67 66 67 65 66 66 65 66 66 64 63 63 62 62 60 62 60 59 60 63 65 66 65 64 65 63 63 63 63 63 62 62 62 62 61 60 59 58 59 58 58 59 60 59 59 59 60 61 59 59 59 59 58 61 62 60 59 59 58 58 57 57 58 58 59 59 61 61 60 59 60 59 57 56
71 70 69 68 67 67 66 66 66 68 67 66 66 64 65 67 67 66 65 66 64 63 64 63 62 61 61 61 61 65 67 67 68 68 66 65 65 64 65 64 64 63 63 62 61 59 58 57 56 56 56 55 55 57 57 59 60 61 59 61 59 58 59 59 58 59 60 58 57 59 59 58 57 58 59 58 58 60 57 55 54 54 57 58 57
71 72 70 68 66 65 66 66 67 66 64 64 63 62 63 65 66 65 65 66 65 64 64 64 64 63 61 62 62 63 67 68 67 67 66 66 66 65 64 63 64 65 62 61 60 59 57 56 57 57 56 56 56 57 57 55 56 57 59 58 57 58 57 56 55 58 61 60 59 58 58 59 59 58 59 58 56 56 56 56 57 58 57 57 56
72 71 69 67 67 66 66 67 64 63 65 64 60 61 62 62 66 66 64 65 64 64 63 63 63 63 61 61 61 62 61 65 67 69 67 65 64 64 64 63 62 62 62 64 62 60 59 58 58 58 58 57 57 58 56 55 58 59 59 59 59 58 57 57 56 56 59 60 58 57 56 58 58 57 57 57 56 57 55 56 56 57 56 55 56
72 71 69 67 68 67 66 65 62 61 62 61 59 60 60 61 61 64 63 63 66 65 62 62 63 63 64 63 62 62 64 66 68 68 68 66 65 64 63 63 62 62 61 60 61 63 60 59 59 58 58 58 57 58 58 59 61 59 59 58 58 58 58 57 56 56 58 60 58 56 54 55 56 55 54 56 54 55 54 55 56 57 57 57 56
72 71 69 70 67 66 65 64 63 61 62 60 59 58 59 60 60 62 62 61 63 62 62 62 62 63 65 65 65 65 66 68 67 66 67 66 67 66 65 66 65 64 62 59 59 59 60 59 59 59 60 61 59 59 60 61 60 59 57 56 58 57 57 56 57 57 58 57 55 55 54 53 55 54 54 53 53 55 57 57 55 55 56 55 55
72 71 69 69 68 67 65 62 60 60 61 59 58 57 57 58 59 61 64 62 62 62 63 62 64 65 67 68 68 68 68 68 67 67 67 66 65 63 62 60 59 58 58 55 59 61 62 61 60 61 62 61 60 60 60 60 59 59 58 58 57 57 56 57 56 56 55 55 56 55 53 54 56 51 51 51 51 52 53 54 54 54 54 54 54
71 69 68 67 66 65 64 61 59 63 64 57 57 56 55 56 58 63 63 64 64 62 63 63 63 67 68 68 69 68 68 67 67 64 64 65 63 63 61 59 58 57 56 60 58 58 59 57 57 56 56 57 56 59 60 57 58 58 56 54 55 55 53 52 51 49 49 50 53 53 51 50 52 48 50 51 52 52 53 54 54 54 53 53 54
69 67 66 64 64 62 63 62 60 64 62 59 56 55 55 56 58 64 64 64 64 62 63 64 65 68 67 69 68 66 65 65 64 59 61 61 63 62 60 59 57 56 56 58 60 57 57 56 55 56 55 54 54 53 53 53 57 57 56 55 54 51 51 50 48 47 47 46 47 50 48 47 51 51 50 51 52 52 52 53 55 54 53 53 54
68 67 65 64 63 61 60 59 58 60 59 61 55 54 55 55 59 64 64 64 64 63 62 63 67 68 68 66 66 65 64 66 57 58 59 62 63 62 60 58 56 56 56 55 55 64 57 56 55 55 55 55 54 54 54 53 53 54 58 56 53 49 49 49 48 49 44 47 48 48 51 47 49 50 50 50 51 52 53 55 56 56 55 53 53
67 67 66 64 63 63 59 59 60 58 56 56 53 54 54 54 59 65 64 63 63 62 63 68 68 67 66 64 62 64 63 65 54 56 56 60 62 60 59 58 56 56 56 56 55 55 57 58 60 61 61 58 61 61 61 57 55 56 58 58 55 52 52 52 51 45 45 46 48 52 49 48 49 48 49 46 47 51 54 54 54 55 56 57 56